Flag for Norway Weather past 2 weeks in Indre Arna, Norway

Now
68 °F

Mild.


Feels Like: 68 °F
Forecast: 52 / 56 °F
Wind: 3 mph from Northwest

Location: Bergen / Florida

Current Time: Jul 5, 2015 at 8:15:34 PM

Latest Report: Jul 5, 2015 at 7:00 PM


Visibility: N/A

Pressure: 29.92 "Hg

Humidity: 65%

Dew point: 56 °F

Location of Indre ArnaLocation

Historic Weather in Indre Arna — Graph

°F

Indre Arna temperature yesterday

Maximum temperature yesterday: 79 °F (at 4:00 PM)
Minimum temperature yesterday: 58 °F (at 6:00 AM)
Average temperature yesterday: 66 °F

Past Weeks' High & Low Weather Summary

 TemperatureHumidityPressure
High85 °F (Jul 2, 5:00 PM)90% (Jun 29, 7:00 AM)30.29 "Hg (Jun 29, 7:00 AM)
Low46 °F (Jun 26, 6:00 AM)21% (Jul 2, 1:00 PM)29.69 "Hg (Jun 22, 8:00 PM)
Average60 °F68%30.00 "Hg
* Reported Jun 20 7:00 PM — Jul 5 7:00 PM, Indre Arna, Weather by CustomWeather, © 2015

Note: Actual official high and low records may vary slightly from our data, if they occured in-between our weather recording intervals... More about our weather records

Advertising

Indre Arna weather history for previous 24 hours

 ConditionsComfort  
Time TempWeatherWind HumidityBarometerVisibility
7:00 PM
Sun, Jul 5
68 °FMild.3 mph65%29.92 "HgN/A
6:00 PM67 °FMild.3 mph68%29.96 "HgN/A
5:00 PM69 °FPartly sunny.3 mph65%29.98 "Hg19 mi
4:00 PM69 °FMild.3 mph66%29.99 "HgN/A
3:00 PM69 °FMild.3 mph72%30.02 "HgN/A
2:00 PM65 °FLow clouds.3 mph75%30.03 "Hg16 mi
1:00 PM69 °FMild.6 mph70%30.03 "HgN/A
12:00 PM69 °FMild.5 mph67%30.03 "HgN/A
11:00 AM71 °FOvercast.5 mph56%30.02 "Hg19 mi
10:00 AM71 °FMild.3 mph58%30.01 "HgN/A
9:00 AM67 °FMild.3 mph67%30.02 "HgN/A
8:00 AM67 °FPartly sunny.No wind65%30.01 "Hg17 mi
7:00 AM62 °FCool.1 mph75%30.00 "HgN/A
6:00 AM60 °FCool.1 mph85%30.02 "HgN/A
4:00 AM59 °FCool.1 mph86%30.03 "HgN/A
3:00 AM60 °FCool.1 mph85%30.03 "HgN/A
2:00 AM60 °FCool.1 mph84%30.05 "HgN/A
1:00 AM60 °FCool.1 mph82%30.06 "HgN/A
12:00 AM61 °FCool.1 mph80%30.08 "HgN/A
11:00 PM
Sat, Jul 4
62 °FCool.1 mph77%30.07 "HgN/A
10:00 PM62 °FMild.5 mph76%30.08 "HgN/A
9:00 PM66 °FMild.5 mph67%30.08 "HgN/A
8:00 PM69 °FOvercast.5 mph62%30.07 "Hg19 mi
Weather by CustomWeather, © 2015

See weather overviewHow to use our weather pages